This demonstration page uses our WeatherBlox Daily Observations layout. Learn more.

Left ArrowRight Arrow

41.55636, -103.73856

Hourly Observations for May 22, 2022

Temp ( °F °C ) Dew Point ( °F °C ) Humidity (%) Winds ( mph kmh ) Pressure ( in mb ) Visibility ( mi km ) Precip ( " mm )
12:58 am 00:58 Clear 34 1.1 23 -4.8 65 65 ESE 10 17 30.31 1027 10 16 0.00 0.00
1:58 am 01:58 Clear 36 2.3 24 -4.7 60 60 SE 12 19 30.29 1026 10 16 0.00 0.00
2:58 am 02:58 Clear 29 -1.4 23 -4.9 77 77 E 8 13 30.28 1026 10 16 0.00 0.00
3:58 am 03:58 Clear 31 -0.4 23 -5 71 71 ENE 5 7 30.28 1026 10 16 0.00 0.00
4:58 am 04:58 Clear 30 -1 23 -5.1 74 74 SSE 5 7 30.30 1026 10 16 0.00 0.00
5:58 am 05:58 Sunny 31 -0.5 24 -4.7 74 74 ESE 10 17 30.29 1026 10 16 0.00 0.00
6:58 am 06:58 Sunny 31 -0.4 26 -3.4 80 80 E 7 11 30.30 1026 10 16 0.00 0.00
7:58 am 07:58 Sunny 41 5 29 -1.7 62 62 E 10 17 30.28 1025 10 16 0.00 0.00
8:58 am 08:58 Sunny 48 9.1 28 -2.2 45 45 SE 14 22 30.26 1025 10 16 0.00 0.00
9:58 am 09:58 Sunny 53 11.8 23 -4.8 31 31 SSE 16 26 30.24 1024 10 16 0.00 0.00
10:58 am 10:58 Partly Cloudy 56 13.3 20 -6.9 24 24 S 22 35 30.21 1023 10 16 0.00 0.00
11:58 am 11:58 Cloudy 53 11.6 26 -3.4 35 35 S 25 41 30.23 1024 10 16 0.00 0.00
12:58 pm 12:58 Cloudy 55 12.7 23 -4.9 29 29 S 20 31 30.20 1023 10 16 0.00 0.00
1:58 pm 13:58 Mostly Cloudy 58 14.4 23 -4.9 26 26 SSE 22 35 30.14 1021 10 16 0.00 0.00
2:58 pm 14:58 Mostly Cloudy 58 14.2 24 -4.5 27 27 S 23 37 30.13 1020 10 16 0.00 0.00
3:58 pm 15:58 Mostly Cloudy 60 15.4 27 -3 28 28 SSE 23 37 30.09 1019 10 16 0.00 0.00
4:58 pm 16:58 Cloudy 57 14.1 26 -3.2 30 30 SSE 18 30 30.09 1019 10 16 0.00 0.00
5:58 pm 17:58 Cloudy 56 13.6 28 -2.4 33 33 S 18 30 30.09 1019 10 16 0.00 0.00
6:58 pm 18:58 Cloudy 56 13.1 30 -1.3 37 37 SSE 21 33 30.09 1019 10 16 0.00 0.00
7:58 pm 19:58 Mostly Cloudy 53 11.8 30 -1 41 41 SSE 21 33 30.06 1018 10 16 0.00 0.00
8:58 pm 20:58 Cloudy 51 10.8 29 -1.6 42 42 SSE 21 33 30.06 1018 10 16 0.00 0.00
9:58 pm 21:58 Cloudy 50 9.8 29 -1.6 45 45 SE 15 24 30.06 1018 10 16 0.00 0.00
10:58 pm 22:58 Cloudy 50 10 29 -1.4 45 45 SE 18 30 30.04 1017 10 16 0.00 0.00
11:58 pm 23:58 Cloudy 49 9.2 30 -1.2 49 49 S 28 44 30.04 1017 10 16 0.00 0.00

Powered by AerisWeather